Location: Arborea
(39.7744°N, 8.5819°E)
Time: 00:44:32
(UTC+00:00)

USA 215 - Pass Details

Date: 24 October 2021
Orbit: 1099 x 1109 km, 123.0° (Epoch: 20 November)

Event Time Altitude Azimuth Distance (km) Brightness Sun altitude
Exits shadow 17:21:14 - 42° (NE) 3,730 5.6 -9.8°
Reaches altitude 10° 17:23:21 10° 36° (NE) 2,963 5.1 -10.2°
Maximum altitude 17:29:18 39° 331° (NNW) 1,604 4.4 -11.4°
Drops below altitude 10° 17:35:14 10° 265° (W) 2,962 7.1 -12.5°
Sets 17:37:53 0° 258° (WSW) 3,919 8.1 -13.0°
